GAOFEN 12

导读 | 星芒AI

高分十二号(GAOFEN 12)卫星是中国高分辨率对地观测系统的重要组成部分,由国家航天局主导研制。该卫星主要用于国土普查、城市规划、环境监测等领域,具备高分辨率、高精度的遥感成像能力。GAOFEN 12于2020年成功发射,运行在太阳同步轨道,搭载先进的光学成像设备,能够提供高质量的遥感数据,支持国家资源调查、灾害预警和国防建设等应用,提升了中国在遥感领域的自主能力和技术水平。

基本信息
目录编号:
44819
目录名称:
GAOFEN 12
国际标识:
2019-082A
轨道中心:
EARTH
卫星名称:
GAOFEN 12
卫星全名:
--
卫星状态:
在轨 (已飞行2210 天)
发射日期:
2019-11-27 UTC
国别 :
中国 (CN)
星等 :
--
轨道信息
数据来源 国际轨道数据
星历时间: 2025-12-15T07:21:29+0800
19小时前
查看轨道信息
半长轴: 7005.38km
偏心率: 0.0001441
轨道倾角: 97.813°
近地点辐角 220.376°
升交点赤经 355.196°
平近点角 139.735°
近地点: 626.235km
远地点: 628.255km
周期: 97.254分钟
每日圈数: 14.806598
详细信息
使用方式:
暂无
2D轨道图
3D轨道图
轨道高度分析图
轨道倾角分析图
轨道综合分析图
查看轨道综合分析图